Temperature
19 20 19 19 19 19 19 19 19 19 18 18 18 18 18 18 18 18 18 18 18 18 18 18 18 18 18 18 18 18 18 18 18 18 18 18 18 18 17 17 17 17 17
20 20 19 19 19 19 19 18 18 18 18 18 18 18 18 18 18 18 18 18 18 18 18 18 18 18 18 18 18 18 18 18 18 18 18 18 17 17 17 17 17 17 17
20 19 19 19 19 19 18 18 18 18 18 18 18 18 18 18 18 18 18 18 18 18 18 18 18 18 18 18 18 18 18 18 18 17 17 17 17 17 17 17 17 17 17
20 19 19 19 19 19 18 18 18 18 18 18 18 18 18 18 18 18 18 18 18 18 18 18 18 18 18 18 18 18 18 18 17 17 17 17 17 17 17 17 17 17 17
19 20 20 19 19 19 19 18 18 18 18 18 18 18 18 18 18 18 18 18 18 18 18 18 18 18 18 18 18 18 18 17 17 17 17 17 17 17 17 17 17 17 17
19 19 20 19 19 19 19 18 18 18 18 18 18 18 18 18 18 18 18 18 18 18 18 18 18 18 18 18 18 18 18 18 17 17 17 17 17 17 17 17 17 17 17
20 20 20 20 19 19 19 18 18 18 18 18 18 18 18 18 18 18 18 18 18 18 18 18 18 18 18 18 18 18 18 18 18 17 17 17 17 17 17 17 17 17 17
20 20 20 20 19 19 19 19 19 19 19 18 18 18 18 18 18 18 18 18 18 18 18 18 18 18 18 18 18 18 18 18 18 17 18 18 17 17 17 17 17 17 17
21 20 20 20 20 19 19 19 19 19 19 18 18 18 18 18 18 18 18 18 18 18 18 18 18 18 18 18 18 18 18 18 18 17 18 18 18 17 17 17 17 17 17
21 21 20 19 19 19 19 19 19 19 19 19 18 18 18 18 18 18 18 18 18 18 18 18 18 18 18 18 18 18 18 18 18 18 18 18 18 17 17 17 17 17 17
22 21 21 20 19 19 19 19 19 19 19 18 18 18 18 18 18 18 18 18 18 18 18 18 18 18 18 18 18 18 18 18 18 18 18 18 18 18 17 17 17 17 17
22 21 21 21 20 20 19 19 19 18 19 18 18 18 18 18 18 18 18 18 18 18 18 18 18 18 18 18 18 19 18 18 18 18 18 18 18 18 18 17 17 17 17
22 22 21 20 20 20 20 19 19 19 19 18 18 18 18 18 18 18 18 18 18 18 18 18 18 18 18 18 18 18 19 18 18 18 18 18 18 18 18 17 17 17 17
22 21 21 20 20 20 20 19 19 19 19 19 19 18 18 18 18 18 18 18 18 18 18 18 18 18 18 18 18 18 19 18 18 18 18 18 18 18 18 18 17 17 17
22 21 21 20 20 19 19 19 19 19 19 19 19 19 18 18 18 18 18 18 18 18 18 18 18 18 18 18 18 18 18 18 18 18 18 18 18 18 18 18 17 17 17
21 21 20 20 20 19 19 19 19 19 19 19 19 18 18 18 18 18 18 18 18 18 18 18 18 18 18 18 18 18 18 18 18 18 18 18 18 18 18 18 18 17 17
21 21 20 20 20 19 19 19 19 19 19 19 19 18 18 18 18 18 18 18 18 18 18 18 18 18 18 18 18 18 18 18 18 18 18 18 18 18 18 18 18 18 17
21 21 20 20 20 20 19 19 19 19 19 19 19 18 18 18 18 18 18 18 18 18 18 18 18 18 18 18 18 18 18 18 18 18 18 18 18 18 18 18 18 17 17
21 21 20 20 20 20 19 19 19 19 19 19 19 19 18 18 18 18 18 18 18 18 18 18 18 18 18 18 18 18 18 18 18 18 18 18 18 18 18 17 17 17 17
21 21 20 20 20 19 19 19 19 19 19 19 19 19 19 18 18 18 18 18 18 18 18 18 18 18 18 18 18 18 18 18 18 18 18 18 18 18 18 17 17 17 17
21 21 20 20 20 20 19 19 19 19 19 19 19 19 19 19 18 18 18 18 18 18 18 18 18 18 18 18 18 18 18 19 18 18 18 18 18 18 18 17 17 17 17
21 21 20 20 20 20 20 19 19 19 19 19 19 19 19 19 19 18 18 18 18 18 18 18 18 18 18 18 18 18 18 18 19 19 18 18 18 18 18 18 17 17 17
22 21 21 20 20 20 19 19 19 19 19 19 19 19 19 19 19 18 18 18 18 18 18 18 18 18 18 18 18 18 18 18 18 19 18 18 18 18 18 17 17 17 17
22 21 21 20 20 20 19 19 19 19 19 19 19 19 19 19 18 18 18 18 18 18 18 18 18 18 18 18 18 18 18 18 18 18 18 18 18 17 17 17 17 17 17
22 21 21 20 20 20 20 19 19 19 19 19 19 19 19 18 18 18 18 18 18 18 18 18 18 18 18 18 18 18 18 18 18 17 17 17 17 17 17 17 17 17 16
22 21 21 20 20 20 20 20 19 19 19 19 19 19 18 18 18 18 18 18 18 18 18 18 18 18 18 18 18 17 17 17 17 17 17 17 17 17 16 16 16 16 16
Wind_Speed
15 15 14 14 14 14 15 15 15 16 16 17 17 17 17 18 18 18 19 19 19 20 20 20 20 20 19 18 18 18 18 19 21 22 21 20 19 18 17 18 18 17 18
17 16 15 15 14 15 15 15 15 15 16 16 16 17 17 17 17 18 18 19 19 19 19 19 19 19 18 17 17 16 17 18 19 20 20 19 17 16 16 17 17 16 17
17 17 16 14 14 14 14 14 14 15 15 16 16 16 16 16 17 17 17 18 18 19 18 18 18 18 17 16 15 15 14 15 16 17 17 16 16 16 17 18 18 17 17
17 16 15 14 14 14 14 14 14 14 14 15 15 15 16 16 16 16 16 17 17 17 17 17 17 16 16 14 13 12 11 11 11 11 12 14 15 16 17 17 17 16 16
17 17 15 14 13 13 13 13 13 13 14 14 14 15 15 15 15 15 16 16 16 16 16 16 16 15 14 12 10 8 7 6 5 9 14 15 15 15 16 16 16 16 15
16 17 15 14 13 13 12 12 13 13 13 13 14 14 14 14 15 15 15 15 15 15 15 15 14 13 12 10 7 5 3 2 2 11 15 16 14 14 15 15 14 15 14
17 17 16 14 14 13 12 12 12 12 12 12 12 13 13 13 14 14 14 14 14 14 14 14 13 12 10 8 5 4 3 3 4 12 15 15 14 14 14 14 14 14 13
17 17 16 14 14 13 12 12 11 11 11 11 11 12 12 12 13 13 13 13 13 13 12 12 11 10 8 6 3 3 5 4 8 14 16 15 15 14 13 13 13 13 13
16 16 14 14 13 13 12 11 11 10 10 10 10 10 10 11 12 12 11 11 11 11 11 10 9 8 6 3 2 3 5 5 5 12 15 13 14 13 12 12 12 12 11
12 13 13 14 14 13 12 11 10 10 9 9 9 9 9 10 11 11 11 10 9 9 9 8 7 6 5 3 1 3 5 4 5 13 14 14 14 13 12 11 11 11 11
10 9 10 11 12 12 12 12 11 10 9 8 8 8 8 8 9 9 10 9 8 8 7 7 6 6 5 4 4 4 5 1 7 13 14 15 14 13 12 11 10 10 10
8 9 8 8 7 7 9 10 9 9 9 6 6 7 6 3 6 9 11 9 8 8 7 7 7 6 6 5 6 6 4 3 8 12 13 16 14 12 11 10 10 10 9
6 7 9 8 4 5 5 6 5 6 7 5 5 4 4 4 5 8 7 8 8 8 6 7 7 6 5 3 3 4 2 3 8 11 13 15 14 12 11 10 10 9 9
6 7 8 8 6 6 4 3 4 5 4 5 5 2 3 1 1 3 3 5 6 6 4 4 4 3 2 2 2 1 1 3 8 10 13 15 14 12 11 10 9 9 9
6 7 8 8 6 4 3 2 2 3 3 5 4 3 2 2 2 2 1 0 1 3 4 2 1 2 1 1 2 1 1 4 7 9 11 14 14 13 12 11 10 9 9
6 6 7 6 6 4 2 1 1 2 3 4 3 3 1 2 2 2 1 0 1 1 1 1 1 2 1 2 1 1 1 3 5 8 12 13 14 13 13 12 11 10 10
7 6 6 6 6 4 3 2 2 2 3 3 4 3 1 1 2 1 1 2 1 1 1 1 2 1 2 2 2 2 2 2 4 6 10 12 12 14 14 13 13 12 12
8 7 5 5 7 5 3 2 1 1 2 2 3 4 3 2 2 2 2 1 2 2 1 1 2 2 1 1 0 1 1 3 4 6 7 9 11 12 14 15 14 14 13
8 7 5 2 5 5 4 2 2 0 1 1 2 2 2 2 3 3 2 1 3 2 2 2 1 1 1 2 2 2 2 3 4 6 6 8 9 10 12 16 17 15 14
8 7 6 4 4 4 3 2 2 2 2 1 1 2 2 2 3 3 3 3 3 2 1 1 0 1 2 3 3 1 2 2 3 4 5 6 8 9 10 11 13 13 14
8 7 6 5 5 3 2 2 2 3 2 2 2 3 4 3 2 3 2 1 2 2 2 2 1 2 3 3 1 1 2 2 3 3 3 3 4 7 8 10 11 11 11
9 7 6 6 6 5 3 2 2 2 2 2 1 2 3 2 3 3 2 2 1 1 1 2 2 2 3 1 1 1 1 2 2 3 2 3 3 3 4 8 10 9 8
9 8 7 6 6 5 4 3 2 1 1 0 2 2 2 2 2 2 1 1 1 1 1 2 2 3 2 2 1 1 1 2 1 2 2 2 2 2 1 3 5 7 7
10 9 7 6 5 4 3 3 3 3 2 2 1 1 2 3 3 2 2 1 1 1 1 2 2 2 2 2 2 2 3 2 1 1 2 1 1 1 1 1 2 4 6
10 9 8 7 5 4 3 3 3 2 2 1 1 2 2 2 2 1 1 0 0 1 1 2 2 2 2 2 2 1 2 2 3 2 2 1 1 1 0 1 1 1 3
9 9 10 8 6 5 4 3 2 2 1 0 0 1 1 1 1 1 1 0 1 1 1 2 2 2 2 2 2 2 2 2 2 2 2 2 1 1 1 0 1 2 3
Wind_Direction
96 94 88 83 81 80 79 77 77 75 74 73 73 73 75 76 78 80 83 86 88 88 88 88 88 89 90 90 90 93 97 100 103 104 103 101 101 102 104 107 104 102 105
102 99 91 87 83 82 80 79 78 77 76 75 75 75 77 79 81 83 84 85 87 88 88 88 89 90 91 91 92 95 100 106 108 110 108 102 100 101 101 101 100 108 108
104 105 96 88 85 83 82 81 80 79 78 77 77 78 79 82 85 86 86 85 86 88 88 89 89 90 91 92 94 99 105 113 118 121 116 107 102 99 100 102 106 109 108
104 100 95 93 88 86 85 83 81 81 80 79 79 79 81 82 85 88 88 88 88 89 90 91 91 92 93 95 98 105 112 121 130 126 116 109 105 103 105 107 110 110 109
98 100 98 96 92 89 87 85 85 84 82 81 81 82 82 83 85 88 89 89 88 90 91 92 93 93 95 96 99 106 114 121 135 113 103 101 101 109 110 111 111 112 111
112 106 104 100 96 93 91 89 88 86 84 84 83 83 83 84 86 89 90 90 89 91 92 93 94 94 94 94 93 87 82 85 120 111 111 108 109 115 114 113 114 113 114
112 112 110 106 102 97 96 95 93 91 89 88 87 87 88 88 90 92 92 91 91 93 95 96 97 97 95 93 82 51 30 10 111 108 105 105 113 119 118 117 117 117 117
115 113 116 114 110 106 102 99 98 97 95 94 94 95 95 95 95 95 96 95 94 95 96 96 99 101 98 91 67 19 356 6 99 107 105 110 120 121 121 120 121 121 121
115 122 128 128 121 117 112 109 107 107 106 107 107 108 107 107 104 102 101 100 100 101 101 100 101 105 108 100 46 346 342 358 95 116 114 118 125 125 125 125 126 126 126
116 125 135 136 137 137 128 126 124 123 123 125 126 127 126 125 122 120 113 110 111 114 115 114 117 123 133 147 237 305 327 333 121 111 112 125 131 132 132 133 134 132 131
108 118 126 127 142 143 136 139 145 143 148 152 153 155 160 158 137 137 117 127 131 134 135 139 145 153 166 190 222 258 288 215 100 103 113 132 138 137 137 138 139 139 139
117 117 110 104 121 133 127 145 158 152 153 174 148 163 176 142 129 125 138 147 154 159 163 174 181 187 205 199 211 230 257 135 111 110 125 140 142 144 145 147 147 147 147
129 114 112 104 97 93 106 135 147 139 149 152 130 134 143 134 137 134 152 164 178 180 191 181 196 204 208 199 203 212 246 84 104 113 138 148 149 152 154 157 158 157 157
122 111 107 109 88 59 57 101 142 131 145 134 123 121 117 114 124 127 151 173 178 175 174 187 205 179 199 197 191 225 138 112 106 118 145 154 156 160 163 167 170 171 170
126 113 98 100 97 87 46 357 92 99 109 117 126 104 132 157 104 103 60 77 199 158 162 194 196 147 208 230 233 181 134 106 116 129 148 161 162 166 171 176 177 179 182
138 124 119 125 121 119 122 1 53 111 120 125 126 121 93 87 86 97 153 268 279 147 138 205 188 157 217 245 225 167 159 116 129 142 151 164 170 174 179 182 185 187 189
147 135 136 147 140 155 166 210 186 166 139 131 132 133 159 138 135 164 219 222 231 220 176 204 262 216 216 224 191 197 180 154 157 145 155 166 175 185 189 191 193 195 197
151 144 169 167 146 160 183 235 264 164 133 152 161 154 176 183 181 229 237 230 219 225 214 221 240 257 266 292 254 248 202 168 173 180 177 181 180 185 194 199 199 201 204
146 147 167 167 146 160 178 200 243 35 123 170 154 147 163 208 198 226 251 226 239 232 223 242 166 245 289 279 247 224 222 212 194 203 190 191 188 181 184 199 203 205 208
147 149 161 173 159 167 179 191 232 220 189 191 167 163 167 218 214 225 235 214 239 242 225 225 223 243 266 269 274 262 243 230 219 210 197 193 193 187 186 187 192 207 213
151 154 165 174 165 176 194 198 205 207 209 191 188 181 176 216 229 230 277 222 226 237 234 234 222 249 256 251 273 287 270 257 236 209 204 188 195 189 180 175 181 191 203
154 160 165 171 172 178 191 201 219 217 209 185 170 153 179 200 231 229 219 254 247 255 248 265 265 262 269 267 249 275 289 294 283 237 201 194 199 170 177 185 182 179 187
165 171 176 167 169 179 186 202 227 217 266 183 152 158 191 203 228 265 253 268 296 270 226 230 242 246 259 272 235 207 229 248 293 292 244 203 165 149 154 144 159 166 176
168 168 155 154 158 168 179 208 219 208 202 204 194 183 193 201 212 212 219 238 281 305 296 261 225 235 246 264 274 246 244 244 227 288 308 298 166 160 182 194 160 165 175
168 163 156 150 153 159 172 202 232 234 213 201 177 197 206 206 212 185 140 130 303 287 297 302 327 286 272 272 272 273 269 261 233 219 255 286 317 321 261 224 95 120 155
161 160 156 150 154 163 182 195 213 240 246 265 275 191 210 198 177 146 163 187 298 311 303 290 289 279 283 286 291 288 278 269 257 222 230 245 246 262 265 322 87 105 126
Height
1528 1527 1527 1527 1527 1528 1528 1528 1528 1528 1528 1528 1528 1528 1528 1527 1528 1528 1529 1529 1529 1530 1531 1532 1533 1534 1535 1536 1538 1539 1541 1542 1544 1545 1547 1548 1550 1551 1552 1553 1555 1556 1557
1529 1529 1529 1529 1530 1530 1530 1530 1531 1531 1531 1531 1531 1531 1531 1531 1531 1532 1532 1533 1533 1534 1535 1536 1537 1537 1539 1540 1541 1542 1544 1545 1547 1548 1549 1551 1552 1553 1555 1556 1557 1558 1559
1530 1531 1531 1531 1532 1532 1533 1533 1533 1534 1534 1534 1534 1534 1534 1535 1535 1535 1536 1536 1537 1537 1538 1539 1540 1541 1542 1543 1544 1545 1547 1548 1549 1551 1552 1553 1555 1556 1557 1558 1559 1560 1562
1533 1533 1533 1533 1534 1535 1535 1536 1536 1536 1536 1537 1537 1537 1537 1537 1538 1538 1539 1540 1540 1541 1542 1542 1543 1544 1545 1546 1547 1548 1550 1551 1552 1554 1555 1556 1557 1558 1559 1560 1561 1563 1564
1534 1534 1535 1535 1536 1537 1537 1538 1539 1539 1539 1539 1540 1540 1540 1540 1541 1541 1542 1543 1543 1544 1545 1545 1546 1547 1548 1549 1550 1551 1552 1553 1555 1556 1557 1558 1559 1560 1561 1562 1563 1564 1566
1536 1536 1537 1537 1538 1539 1540 1540 1541 1541 1542 1542 1542 1543 1543 1543 1544 1544 1545 1545 1546 1547 1547 1548 1549 1550 1551 1552 1553 1554 1555 1556 1557 1559 1559 1560 1560 1562 1563 1564 1565 1566 1568
1538 1538 1539 1539 1540 1541 1542 1542 1543 1543 1544 1544 1545 1545 1545 1546 1546 1547 1548 1548 1549 1549 1550 1551 1552 1552 1553 1554 1555 1556 1557 1558 1559 1561 1561 1561 1562 1563 1564 1566 1567 1568 1569
1540 1540 1541 1541 1542 1543 1544 1544 1545 1545 1546 1547 1547 1548 1548 1549 1549 1549 1550 1551 1551 1552 1553 1553 1554 1555 1556 1557 1557 1558 1559 1560 1562 1562 1562 1563 1564 1565 1566 1567 1569 1570 1571
1542 1542 1542 1543 1544 1545 1546 1546 1547 1548 1548 1549 1549 1550 1551 1551 1551 1552 1552 1553 1554 1554 1555 1556 1556 1557 1558 1559 1560 1561 1561 1562 1563 1564 1563 1564 1565 1566 1567 1569 1570 1571 1572
1544 1545 1545 1546 1546 1547 1548 1549 1549 1550 1550 1551 1552 1552 1553 1553 1554 1554 1555 1556 1556 1557 1557 1558 1559 1559 1560 1561 1562 1563 1563 1564 1565 1565 1565 1566 1567 1568 1569 1570 1571 1572 1573
1546 1547 1548 1549 1549 1550 1550 1550 1551 1551 1552 1553 1554 1555 1555 1555 1556 1557 1557 1558 1558 1559 1560 1560 1561 1562 1562 1563 1564 1565 1565 1566 1567 1566 1566 1567 1568 1569 1570 1571 1572 1573 1574
1548 1549 1550 1551 1552 1552 1553 1552 1553 1554 1554 1555 1556 1556 1557 1558 1558 1559 1559 1559 1560 1561 1561 1562 1563 1563 1563 1564 1565 1566 1566 1567 1567 1567 1568 1568 1569 1570 1571 1572 1572 1573 1574
1549 1550 1551 1552 1553 1554 1554 1554 1555 1556 1556 1556 1557 1558 1558 1559 1559 1560 1560 1561 1561 1562 1563 1563 1564 1564 1565 1565 1566 1567 1568 1568 1568 1568 1569 1569 1570 1570 1571 1572 1573 1574 1575
1550 1551 1552 1552 1553 1554 1555 1556 1556 1557 1557 1557 1558 1559 1559 1560 1560 1560 1561 1561 1562 1563 1563 1564 1565 1565 1566 1567 1567 1568 1569 1569 1569 1568 1569 1569 1570 1571 1571 1572 1573 1574 1575
1551 1552 1552 1553 1553 1554 1554 1555 1557 1557 1558 1558 1559 1559 1559 1560 1560 1561 1561 1562 1563 1563 1564 1565 1565 1565 1566 1567 1567 1568 1569 1569 1569 1569 1569 1570 1570 1571 1571 1572 1572 1573 1574
1551 1552 1552 1553 1553 1554 1554 1555 1556 1557 1558 1559 1559 1559 1560 1560 1560 1561 1561 1562 1563 1563 1564 1565 1565 1566 1566 1567 1567 1568 1569 1569 1569 1569 1569 1569 1570 1570 1571 1572 1572 1573 1574
1551 1552 1552 1553 1553 1554 1555 1556 1557 1557 1558 1558 1558 1559 1559 1560 1560 1561 1561 1562 1562 1563 1564 1564 1565 1565 1566 1567 1567 1567 1568 1568 1569 1569 1569 1569 1569 1570 1570 1571 1572 1572 1573
1550 1550 1552 1553 1553 1554 1555 1555 1557 1557 1557 1558 1558 1558 1558 1559 1559 1560 1560 1561 1562 1562 1563 1563 1564 1565 1566 1566 1566 1567 1567 1567 1567 1568 1568 1568 1568 1569 1569 1570 1571 1572 1572
1548 1549 1551 1553 1553 1554 1554 1555 1556 1556 1557 1557 1558 1558 1558 1558 1559 1559 1559 1560 1561 1561 1562 1563 1563 1564 1565 1565 1565 1565 1565 1566 1566 1566 1566 1567 1567 1568 1568 1569 1569 1570 1571
1548 1549 1550 1551 1552 1553 1554 1554 1555 1556 1556 1557 1557 1557 1557 1557 1558 1558 1559 1559 1560 1560 1561 1562 1562 1563 1563 1564 1564 1564 1564 1564 1564 1564 1565 1565 1565 1566 1566 1567 1567 1568 1569
1547 1548 1549 1550 1551 1552 1553 1553 1554 1555 1556 1556 1556 1556 1556 1556 1557 1557 1558 1558 1558 1559 1560 1561 1561 1561 1562 1562 1562 1562 1562 1561 1561 1562 1563 1563 1564 1564 1564 1565 1565 1566 1566
1545 1547 1548 1549 1550 1551 1552 1553 1553 1554 1555 1555 1555 1555 1555 1556 1556 1557 1556 1557 1557 1558 1558 1558 1559 1560 1560 1561 1561 1560 1560 1561 1560 1561 1561 1561 1561 1562 1562 1563 1563 1563 1564
1544 1545 1547 1548 1549 1550 1551 1552 1553 1553 1554 1554 1554 1554 1554 1555 1555 1555 1555 1556 1556 1556 1557 1557 1557 1558 1558 1559 1559 1560 1559 1558 1558 1559 1559 1559 1560 1560 1560 1561 1561 1561 1561
1542 1544 1545 1546 1547 1548 1549 1550 1552 1552 1552 1553 1553 1554 1554 1554 1554 1554 1554 1554 1555 1555 1555 1555 1556 1556 1556 1556 1557 1557 1558 1557 1557 1557 1557 1558 1558 1558 1558 1558 1558 1558 1558
1541 1543 1544 1545 1546 1547 1548 1549 1550 1551 1551 1552 1552 1552 1553 1553 1553 1553 1553 1553 1553 1554 1554 1554 1554 1554 1554 1554 1554 1554 1555 1555 1555 1555 1555 1555 1556 1555 1556 1556 1556 1556 1556
1540 1541 1542 1543 1544 1545 1546 1547 1548 1549 1550 1551 1551 1551 1551 1552 1552 1552 1552 1552 1552 1552 1552 1552 1552 1552 1552 1552 1552 1552 1552 1553 1553 1553 1553 1553 1553 1553 1553 1553 1554 1553 1553